This demonstration page uses our WeatherBlox Daily Observations layout. Learn more.

Left ArrowRight Arrow

39.08367, -84.50855

Hourly Observations for August 25, 2019

Temp ( °F °C ) Dew Point ( °F °C ) Humidity (%) Winds ( mph kmh ) Pressure ( in mb ) Visibility ( mi km ) Precip ( " mm )
12:53 am 00:53 Clear 61 16.1 56 13.3 84 84 NNE 5 7 30.15 1021 10 16 N/A
1:53 am 01:53 Clear 61 16.1 54 12.2 78 78 NNE 5 7 30.14 1021 10 16 N/A
2:53 am 02:53 Clear 57 13.9 55 12.8 93 93 N N/A 30.14 1021 10 16 N/A
3:53 am 03:53 Clear 56 13.3 55 12.8 97 97 N N/A 30.13 1020 10 16 N/A
4:45 am 04:45 Clear with Mist and Fog 53 11.7 53 11.7 100 100 SSW 6 9 30.13 1020 2 2 N/A
4:53 am 04:53 Clear with Mist and Fog 53 11.7 52 11.1 96 96 N N/A 30.11 1020 1 2 N/A
4:57 am 04:57 Clear with Mist and Fog 54 12.2 53 11.7 97 97 N N/A 30.12 1020 4 6 N/A
5:53 am 05:53 Clear 55 12.8 54 12.2 96 96 N N/A 30.11 1020 10 16 N/A
6:53 am 06:53 Mostly Clear with Patchy Fog 54 12.2 53 11.7 97 97 N N/A 30.12 1020 10 16 N/A
7:53 am 07:53 Mostly Sunny 56 13.3 55 12.8 97 97 N N/A 30.13 1020 10 16 N/A
8:53 am 08:53 Sunny 63 17.2 56 13.3 78 78 NNE 7 11 30.12 1020 10 16 N/A
9:53 am 09:53 Sunny 68 20 58 14.4 70 70 NNE 6 9 30.12 1020 10 16 N/A
10:53 am 10:53 Sunny 72 22.2 58 14.4 61 61 ESE 7 11 30.11 1020 10 16 N/A
11:53 am 11:53 Sunny 76 24.4 60 15.6 58 58 ENE 6 9 30.10 1019 10 16 N/A
12:53 pm 12:53 Sunny 77 25 60 15.6 56 56 E 12 19 30.08 1019 10 16 N/A
1:53 pm 13:53 Sunny 79 26.1 61 16.1 54 54 VRB 7 11 30.07 1018 10 16 N/A
2:53 pm 14:53 Mostly Sunny 81 27.2 61 16.1 51 51 E 8 13 30.06 1018 10 16 N/A
3:53 pm 15:53 Sunny 81 27.2 60 15.6 49 49 SE 12 19 30.04 1017 10 16 N/A
4:53 pm 16:53 Sunny 81 27.2 59 15 47 47 ENE 12 19 30.01 1016 10 16 N/A
5:53 pm 17:53 Sunny 80 26.7 60 15.6 51 51 E 7 11 30.00 1016 10 16 N/A
6:53 pm 18:53 Sunny 78 25.6 60 15.6 54 54 E 9 15 30.00 1016 10 16 N/A
7:53 pm 19:53 Sunny 76 24.4 59 15 56 56 E 6 9 30.00 1016 10 16 N/A
8:53 pm 20:53 Clear 70 21.1 61 16.1 73 73 ENE 5 7 30.01 1016 10 16 N/A
9:53 pm 21:53 Mostly Cloudy 70 21.1 61 16.1 73 73 VRB 3 6 30.02 1017 10 16 N/A
10:53 pm 22:53 Cloudy 72 22.2 60 15.6 66 66 NE 6 9 30.02 1017 10 16 N/A
11:53 pm 23:53 Cloudy 70 21.1 60 15.6 71 71 NNE 6 9 30.01 1016 10 16 N/A

Powered by AerisWeather